AirNav   Everest Fuels
 
 1227 users online  

07CO Comanche Creek Airport
Kiowa, Colorado, USA

GOING TO KIOWA?


FAA INFORMATION EFFECTIVE 10 SEPTEMBER 2020

Location

FAA Identifier: 07CO
Lat/Long: 39-15-49.0000N 104-25-37.0000W
39-15.816667N 104-25.616667W
39.2636111,-104.4269444
(estimated)
Elevation: 6620 ft. / 2018 m (estimated)
From city: 6 miles SW of KIOWA, CO
Time zone: UTC -6 (UTC -7 during Standard Time)
Zip code: 80117

Airport Operations

Airport use: Private use. Permission required prior to landing
Activation date: 07/2004
Control tower: no
ARTCC: DENVER CENTER
FSS: DENVER FLIGHT SERVICE STATION
Attendance: UNATNDD
Wind indicator: yes
Segmented circle: no

Nearby radio navigation aids

VOR radial/distance  VOR name  Freq  Var
BRKr019/21.4BLACK FOREST VOR/DME112.5008E
FQFr150/27.1FALCON VORTAC116.3011E
DENr154/34.7DENVER VOR/DME117.9008E
FCSr012/38.2BUTTS VOR/DME108.8012E
DVVr158/38.9MILE HIGH VORTAC114.7008E

 
NDB name  Hdg/Dist  Freq  Var  ID
IRONHORSE015/38.333508EIHS .. .... ...

Airport Services

Runway Information

Runway 2/20

Dimensions: 3100 x 75 ft. / 945 x 23 m
Surface: turf
RUNWAY 2  RUNWAY 20
Traffic pattern: rightleft

Airport Ownership and Management from official FAA records

Ownership: Privately-owned
Owner: JACK & KETA CRALL
27280 MAUL ROAD
KIOWA, CO 80117
Phone 303-648-9650
Manager: JACK T. CRALL
27280 MAUL ROAD
KIOWA, CO 80117
Phone 303-648-9650

Additional Remarks

FOR CD CTC DENVER APCH AT 303-342-1916.

Instrument Procedures

There are no published instrument procedures at 07CO.

Some nearby airports with instrument procedures:

KAPA - Centennial Airport (27 nm NW)
KCOS - City of Colorado Springs Municipal Airport (30 nm SW)
KBKF - Buckley Air Force Base (30 nm NW)
KCFO - Colorado Air and Space Port Airport (32 nm N)
KDEN - Denver International Airport (38 nm N)
 
Loc | Ops | Rwys | IFR | FBO | Links
Com | Nav | Svcs | Stats | Notes

AirBoss

 
Area around 07CO (Comanche Creek Airport)
 
Road maps at: MapQuest Bing Google
 
Aerial photo
No photo
 
Sectional chart

 
Airport distance calculator
Flying to Comanche Creek Airport? Find the distance to fly.

From to 07CO

Sunrise and sunset
Times for 27-Sep-2020
 Local
(UTC-6)
 Zulu
(UTC)
Morning civil twilight06:2512:25
Sunrise06:5212:52
Sunset18:4500:45
Evening civil twilight19:1101:11

Current date and time
Zulu (UTC)  27-Sep-2020 18:46:47
Local (UTC-6)  27-Sep-2020 12:46:47
 
METAR
KMNH 
10nm W 
271815Z AUTO 35010KT 10SM BKN022 04/M01 A3027 RMK AO2
TAF
KAPA 
27nm NW 
271720Z 2718/2818 02015KT P6SM VCSH SCT030 BKN040 FM280100 03011KT P6SM SCT070 BKN110 FM280400 27007KT P6SM SCT150 FM281500 32012KT P6SM SKC
KCOS 
30nm SW 
271734Z 2718/2818 04014G24KT P6SM FEW040 BKN060 FM271900 04018G30KT 6SM HZ VCSH SCT025 OVC040 FM280000 01012G22KT 6SM HZ SCT030 OVC060 FM280400 34010KT P6SM SCT060 FM281500 31014G24KT P6SM SKC
KBKF 
31nm NW 
271701Z 2717/2823 02015G20KT 9999 SCT040 BKN080 520003 QNH3015INS TEMPO 2718/2721 06018G25KT OVC030 620305 BECMG 2804/2805 32009KT 9999 SCT090 QNH3034INS BECMG 2816/2817 33010G15KT 9999 SKC QNH3032INS TX07/2717Z TN00/2813Z
NOTAMs
Click for the latest NOTAMs
NOTAMs are issued by the DoD/FAA and will open in a separate window not controlled by AirNav.

 

 
 

Would you like to see your business listed on this page?

 If your business provides an interesting product or service to pilots, flight crews, aircraft, or users of the Comanche Creek Airport, you should consider listing it here.  To start the listing process, click on the button below
 
Add a business
 

Other Pages about Comanche Creek Airport

Update a link
 
Copyright © AirNav, LLC. All rights reserved. Privacy Policy  Contact